New Delhi, India

6:43 AM IST on March 26, 2017 (GMT +0530)
Indira Gandhi International Airport

Weather History for VIDP - September, 2013

Change the Weather History Date:

Thursday, September 19, 2013

  Actual Average Record
Temperature  
Mean Temperature 86 °F -  
Max Temperature 95 °F 89 °F 102 °F (2001)
Min Temperature 77 °F 70 °F 69 °F (2008)
Cooling Degree Days 21    
Growing Degree Days 36 (Base 50)    
Moisture  
Dew Point 72 °F    
Average Humidity 66    
Maximum Humidity 94    
Minimum Humidity 41    
Precipitation  
Precipitation 0.00 in - - ()
Sea Level Pressure  
Sea Level Pressure 29.65 in    
Wind  
Wind Speed 3 mph ()    
Max Wind Speed 8 mph    
Max Gust Speed -    
Visibility 1.5 miles    
Events      
Averages and records for this station are not official NWS values.
T = Trace of Precipitation, MM = Missing Value Source: Averaged Metar Reports

Daily Weather History Graph

Daily Weather History Graph

Search for Another Location

Airport or City:

Trip Planner

Search our weather history database for the weather conditions in past years. The results will help you decide how hot, cold, wet, or windy it might be!

Date:

Astronomy

Sep. 19, 2013 Rise Set
Actual Time 6:08 AM IST 6:21 PM IST
Civil Twilight 5:44 AM IST 6:45 PM IST
Nautical Twilight 5:17 AM IST 7:12 PM IST
Astronomical Twilight 4:49 AM IST 7:40 PM IST
Moon 6:08 PM IST (9/19) 5:45 AM IST (9/19)
Length of Visible Light 13h 00m
Length of Day
12h 13m
Full, 100% of the Moon is Illuminated
Sep 19
Full
Sep 19
Full
Sep 27
Last Quarter
Oct 5
New
Oct 12
First Quarter

Hourly Weather History & Observations

Time (IST) Temp. Heat Index Dew Point Humidity Pressure Visibility Wind Dir Wind Speed Gust Speed Precip Events Conditions
12:00 AM 82.4 °F 87.2 °F 71.6 °F 70% 29.65 in 1.6 mi NW 4.6 mph - N/A   Haze
12:30 AM 82.4 °F 87.2 °F 71.6 °F 70% 29.65 in 1.6 mi NW 4.6 mph - N/A   Haze
1:00 AM 80.6 °F 84.6 °F 71.6 °F 74% 29.65 in 1.6 mi NNW 3.5 mph - N/A   Haze
1:30 AM 80.6 °F 84.6 °F 71.6 °F 74% 29.65 in 1.6 mi NW 3.5 mph - N/A   Haze
2:00 AM 80.6 °F 84.6 °F 71.6 °F 74% 29.65 in 1.6 mi NW 3.5 mph - N/A   Haze
2:30 AM 78.8 °F - 71.6 °F 78% 29.65 in 1.6 mi NNW 3.5 mph - N/A   Haze
3:00 AM 78.8 °F - 73.4 °F 83% 29.65 in 1.6 mi NNW 3.5 mph - N/A   Haze
3:30 AM 78.8 °F - 73.4 °F 83% 29.65 in 1.6 mi Calm Calm - N/A   Haze
4:00 AM 78.8 °F - 73.4 °F 83% 29.65 in 1.4 mi Calm Calm - N/A   Mist
4:30 AM 78.8 °F - 73.4 °F 83% 29.65 in 1.4 mi Calm Calm - N/A   Mist
5:00 AM 78.8 °F - 73.4 °F 83% 29.65 in 1.4 mi Calm Calm - N/A   Mist
5:30 AM 78.8 °F - 75.2 °F 89% 29.65 in 1.4 mi Calm Calm - N/A   Mist
6:00 AM 77.0 °F - 75.2 °F 94% 29.68 in 1.2 mi Calm Calm - N/A   Mist
6:30 AM 77.0 °F - 75.2 °F 94% 29.68 in 1.1 mi Calm Calm - N/A   Mist
7:00 AM 77.0 °F - 75.2 °F 94% 29.68 in 1.1 mi WSW 5.8 mph - N/A   Mist
7:30 AM 77.0 °F - 75.2 °F 94% 29.68 in 1.1 mi WSW 4.6 mph - N/A   Mist
8:00 AM 78.8 °F - 75.2 °F 89% 29.68 in 1.0 mi Calm Calm - N/A   Mist
9:00 AM 82.4 °F 89.5 °F 75.2 °F 79% 29.71 in 1.1 mi Calm Calm - N/A   Mist
9:30 AM 84.2 °F 90.9 °F 73.4 °F 70% 29.71 in 1.2 mi Calm Calm - N/A   Haze
10:00 AM 87.8 °F 95.6 °F 73.4 °F 62% 29.71 in 1.4 mi Calm Calm - N/A   Haze
10:30 AM 89.6 °F 98.2 °F 73.4 °F 59% 29.71 in 1.6 mi Calm Calm - N/A   Haze
11:00 AM 89.6 °F 96.2 °F 71.6 °F 55% 29.71 in 1.6 mi Calm Calm - N/A   Haze
11:30 AM 89.6 °F 96.2 °F 71.6 °F 55% 29.71 in 1.4 mi WNW 3.5 mph - N/A   Haze
12:00 PM 91.4 °F 100.1 °F 73.4 °F 55% 29.71 in 1.4 mi WNW 3.5 mph - N/A   Haze
12:30 PM 91.4 °F 96.8 °F 69.8 °F 49% 29.68 in 1.5 mi NW 4.6 mph - N/A   Haze
1:00 PM 93.2 °F 100.5 °F 71.6 °F 49% 29.65 in 1.5 mi NW 5.8 mph - N/A   Haze
1:30 PM 93.2 °F 102.4 °F 73.4 °F 52% 29.65 in 1.6 mi NNW 3.5 mph - N/A   Haze
2:00 PM 93.2 °F 98.8 °F 69.8 °F 46% 29.65 in 1.4 mi NNW 6.9 mph - N/A   Haze
2:30 PM 95.0 °F 101.3 °F 69.8 °F 44% 29.62 in 1.4 mi NNE 5.8 mph - N/A   Haze
3:00 PM 95.0 °F 99.5 °F 68.0 °F 41% 29.59 in 1.4 mi NNE 5.8 mph - N/A   Haze
3:30 PM 95.0 °F 99.5 °F 68.0 °F 41% 29.59 in 1.4 mi NNE 6.9 mph - N/A   Haze
4:00 PM 95.0 °F 99.5 °F 68.0 °F 41% 29.59 in 1.4 mi North 5.8 mph - N/A   Haze
4:30 PM 95.0 °F 103.2 °F 71.6 °F 47% 29.59 in 1.7 mi NNW 6.9 mph - N/A   Haze
5:30 PM 93.2 °F 98.8 °F 69.8 °F 46% 29.56 in 1.9 mi North 5.8 mph - N/A   Haze
6:00 PM 93.2 °F 100.5 °F 71.6 °F 49% 29.56 in 1.9 mi NNE 6.9 mph - N/A   Haze
6:30 PM 89.6 °F 96.2 °F 71.6 °F 55% 29.59 in 1.6 mi NNW 6.9 mph - N/A   Haze
7:00 PM 87.8 °F 93.8 °F 71.6 °F 58% 29.59 in 1.6 mi NNW 8.1 mph - N/A   Haze
7:30 PM 87.8 °F 93.8 °F 71.6 °F 58% 29.59 in 1.6 mi NNW 6.9 mph - N/A   Haze
8:00 PM 87.8 °F 92.6 °F 69.8 °F 55% 29.62 in 1.6 mi North 3.5 mph - N/A   Haze
8:30 PM 87.8 °F 92.6 °F 69.8 °F 55% 29.62 in 1.6 mi North 4.6 mph - N/A   Haze
9:00 PM 86.0 °F 90.4 °F 69.8 °F 58% 29.62 in 1.6 mi North 4.6 mph - N/A   Haze
9:30 PM 86.0 °F 91.8 °F 71.6 °F 62% 29.65 in 1.6 mi North 3.5 mph - N/A   Haze
10:00 PM 86.0 °F 91.8 °F 71.6 °F 62% 29.65 in 1.6 mi North 3.5 mph - N/A   Haze
10:30 PM 84.2 °F 90.9 °F 73.4 °F 70% 29.65 in 1.1 mi Calm Calm - N/A   Haze
11:00 PM 82.4 °F 88.2 °F 73.4 °F 74% 29.65 in 1.2 mi Calm Calm - N/A   Haze
11:30 PM 82.4 °F 88.2 °F 73.4 °F 74% 29.65 in 1.2 mi SE 3.5 mph - N/A   Haze